Regional Weather Roundup
Issued by NWS

Home | Current Version | Previous Version | Text Only | Print | Product List | Glossary Off
Versions: 1 2 3 4 5 6 7 8 9 10 11 12 13 14 15 16 17 18 19 20 21 22 23 24 25 26 27 28 29 30 31 32 33 34 35 36 37 38 39 40 41 42 43 44 45 46 47 48 49 50

214
ASUS45 KCYS 131710
RWRWY

WYOMING REGIONAL WEATHER ROUNDUP
NATIONAL WEATHER SERVICE CHEYENNE WY
1000 AM MST SAT FEB 13 2016

NOTE:  "FAIR" INDICATES FEW OR NO CLOUDS BELOW 12,000 FEET
WITH NO SIGNIFICANT WEATHER AND/OR OBSTRUCTIONS TO VISIBILITY.

WYZ001-131800-
YELLOWSTONE NATIONAL PARK

CITY           SKY/WX    TMP DP  RH WIND       PRES   REMARKS
LK YELLOWSTONE   N/A     35  19  52 SW9G21    30.05F WCI  28
W YELLOWSTONE  NOT AVBL

$$
WYZ002>013-054>058-071-098>099-131800-
NORTHERN WYOMING

CITY           SKY/WX    TMP DP  RH WIND       PRES   REMARKS
JACKSON        PTSUNNY   28  21  74 CALM      30.10F
CODY           FAIR      54  25  32 W10G16    29.92F
GREYBULL       FAIR      38  30  73 E5        29.92F WCI  34
WORLAND        FAIR      38  32  79 NW3       29.92F
SHERIDAN       FAIR      55  33  43 NE3       29.84F
BUFFALO        FAIR      50  30  46 SE8       29.88F
GILLETTE       FAIR      39  31  72 SE13      29.88F WCI  31
HULETT         CLOUDY    36  32  87 S7        29.88F WCI  30
NEWCASTLE      FAIR      34  28  80 CALM      29.95F

$$
WYZ014>020-022>026-101>103-131800-
CENTRAL WYOMING

CITY           SKY/WX    TMP DP  RH WIND       PRES   REMARKS
BIG PINEY      FAIR      26  21  81 E6        30.15F WCI  19
PINEDALE         N/A    N/A N/A N/A MISG        N/A
DUBOIS         FAIR      43  14  31 W18G24    30.02F
LANDER         FAIR      40  23  50 E8        30.00F WCI  34
RIVERTON       FAIR      35  24  64 S7        30.01F WCI  29
CASPER         FAIR      41  22  46 SW24      30.00F
DOUGLAS        FAIR      38  33  82 N7        29.98F WCI  33

$$
WYZ021-027>030-104>119-131800-
SOUTHERN WYOMING

CITY           SKY/WX    TMP DP  RH WIND       PRES   REMARKS
EVANSTON       FAIR      33  15  47 SW9       30.25R WCI  25
KEMMERER       FAIR      32  18  55 W7        30.21R WCI  26
FORT BRIDGER   SUNNY     39  23  52 W21       30.24S WCI  29
ROCK SPRINGS   FAIR      38  18  44 W20       30.19R WCI  28
DIXON          FAIR      29  19  67 CALM      30.24S
RAWLINS        CLOUDY    39  19  44 W22G30    30.14F WCI  29
SARATOGA       FAIR      43  19  39 CALM      30.16F
LARAMIE        FAIR      48  14  25 SW12      30.09F
CHEYENNE       FAIR      56  14  19 W13G26    30.03F
TORRINGTON     PTSUNNY   31  30  96 CALM      30.01F
PINE BLUFFS    FAIR      32  32 100 SW10      30.04F WCI  24

$$




USA.gov is the U.S. government's official web portal to all federal, state and local government web resources and services.